Kingston, Jamaica

2:14 PM EST on May 29, 2017 (GMT -0500)
Norman Manley International

Weather History for MKJP - February, 2014

Change the Weather History Date:

Tuesday, February 18, 2014

  Actual Average Record
Temperature  
Mean Temperature 80 °F -  
Max Temperature 88 °F 84 °F 89 °F (2013)
Min Temperature 73 °F 75 °F 72 °F (2017)
Cooling Degree Days 16    
Growing Degree Days 30 (Base 50)    
Moisture  
Dew Point 71 °F    
Average Humidity 75    
Maximum Humidity 94    
Minimum Humidity 58    
Precipitation  
Precipitation 0.00 in - - ()
Sea Level Pressure  
Sea Level Pressure 29.97 in    
Wind  
Wind Speed 6 mph ()    
Max Wind Speed 20 mph    
Max Gust Speed -    
Visibility 8.1 miles    
Events      
Averages and records for this station are not official NWS values.
T = Trace of Precipitation, MM = Missing Value Source: Averaged Metar Reports

Daily Weather History Graph

Daily Weather History Graph

Search for Another Location

Airport or City:

Trip Planner

Search our weather history database for the weather conditions in past years. The results will help you decide how hot, cold, wet, or windy it might be!

Date:

Astronomy

Feb. 18, 2014 Rise Set
Actual Time 6:32 AM EST 6:09 PM EST
Civil Twilight 6:10 AM EST 6:31 PM EST
Nautical Twilight 5:44 AM EST 6:57 PM EST
Astronomical Twilight 5:19 AM EST 7:22 PM EST
Moon 9:20 PM EST (2/18) 8:39 AM EST (2/18)
Length of Visible Light 12h 21m
Length of Day
11h 36m
Waning Gibbous, 87% of the Moon is Illuminated
Feb 18
Waning Gibbous
Feb 22
Last Quarter
Mar 1
New
Mar 8
First Quarter
Mar 16
Full

Hourly Weather History & Observations

Time (EST) Temp. Heat Index Dew Point Humidity Pressure Visibility Wind Dir Wind Speed Gust Speed Precip Events Conditions
12:00 AM 77.0 °F - 71.6 °F 83% 29.98 in 6.2 mi NNE 4.6 mph - N/A   Partly Cloudy
1:00 AM 75 °F - 72 °F 87% 29.98 in 12 mi NW 8.1 mph - -   Scattered Clouds
1:00 AM 75.2 °F - 71.6 °F 89% 29.98 in 6.2 mi NW 8.1 mph - N/A   Partly Cloudy
2:00 AM 77.0 °F - 69.8 °F 78% 29.95 in 6.2 mi Variable 2.3 mph - N/A   Partly Cloudy
3:00 AM 77.0 °F - 71.6 °F 83% 29.95 in 6.2 mi Variable 2.3 mph - N/A   Partly Cloudy
4:00 AM 77 °F - 72 °F 81% 29.95 in 12 mi NNE 4.6 mph - -   Scattered Clouds
4:00 AM 77.0 °F - 71.6 °F 83% 29.95 in 6.2 mi NNE 4.6 mph - N/A   Partly Cloudy
5:00 AM 77.0 °F - 71.6 °F 83% 29.95 in 6.2 mi NE 4.6 mph - N/A   Partly Cloudy
6:00 AM 75.2 °F - 69.8 °F 83% 29.95 in 6.2 mi West 3.5 mph - N/A   Partly Cloudy
7:00 AM 74 °F - 71 °F 89% 29.99 in 15 mi 2.3 mph - -   Haze
7:00 AM 73.4 °F - 71.6 °F 94% 29.98 in 6.2 mi Variable 2.3 mph - N/A   Partly Cloudy
8:00 AM 78.8 °F - 71.6 °F 78% 30.01 in 6.2 mi SSW 3.5 mph - N/A   Partly Cloudy
9:00 AM 80.6 °F 84.6 °F 71.6 °F 74% 30.01 in 6.2 mi SW 4.6 mph - N/A   Scattered Clouds
10:00 AM 80 °F - 73 °F 73% 30.03 in 15 mi North 3.5 mph - -   Haze
10:00 AM 80.6 °F 85.4 °F 73.4 °F 79% 30.01 in 6.2 mi North 3.5 mph - N/A   Mostly Cloudy
11:00 AM 82.4 °F 87.2 °F 71.6 °F 70% 30.01 in 6.2 mi NNW 3.5 mph - N/A   Scattered Clouds
12:00 PM 82.4 °F 87.2 °F 71.6 °F 70% 30.01 in 6.2 mi SW 5.8 mph - N/A   Mostly Cloudy
1:00 PM 88 °F - 75 °F 58% 29.99 in 15 mi South 5.8 mph - -   Mostly Cloudy
1:00 PM 87.8 °F 97.6 °F 75.2 °F 66% 29.98 in 6.2 mi South 5.8 mph - N/A   Mostly Cloudy
2:00 PM 86.0 °F 90.4 °F 69.8 °F 58% 29.95 in 6.2 mi SE 12.7 mph - N/A   Scattered Clouds
3:00 PM 84.2 °F 90.9 °F 73.4 °F 70% 29.95 in 6.2 mi SSE 15.0 mph - N/A   Partly Cloudy
4:00 PM 82 °F - 72 °F 66% 29.94 in 14 mi South 16.1 mph - -   Haze
4:00 PM 82.4 °F 88.2 °F 73.4 °F 74% 29.92 in 6.2 mi South 16.1 mph - N/A   Partly Cloudy
5:00 PM 82.4 °F 85.4 °F 68.0 °F 62% 29.92 in 6.2 mi SE 17.3 mph - N/A   Partly Cloudy
6:00 PM 80.6 °F 83.9 °F 69.8 °F 70% 29.95 in 6.2 mi SE 19.6 mph - N/A   Partly Cloudy
7:00 PM 82 °F - 72 °F 66% 29.96 in 14 mi SE 4.6 mph - -   Haze
7:00 PM 82.4 °F 87.2 °F 71.6 °F 70% 29.95 in 6.2 mi SE 4.6 mph - N/A   Mostly Cloudy
8:00 PM 78.8 °F - 69.8 °F 74% 29.95 in 6.2 mi WNW 12.7 mph - N/A   Scattered Clouds
9:00 PM 78.8 °F - 68.0 °F 69% 29.98 in 6.2 mi WNW 10.4 mph - N/A   Partly Cloudy
10:00 PM 78 °F - 68 °F 65% 29.99 in 14 mi WNW 6.9 mph - -   Haze
10:00 PM 77.0 °F - 68.0 °F 74% 29.98 in 6.2 mi WNW 6.9 mph - N/A   Partly Cloudy
11:00 PM 77.0 °F - 66.2 °F 69% 29.98 in 6.2 mi SSE 4.6 mph - N/A   Partly Cloudy